Location: Lima
(44.6384°N, 112.5920°W)
Time: 23:19:39
(UTC+00:00)

AO-85 - Visible Passes

Search period start: 18 April 2024 00:00
Search period end: 28 April 2024 00:00
Orbit: 516 x 753 km, 64.8° (Epoch: 04 January)

Date Brightness Start Highest point End Pass type
(mag) Time Alt. Az. Time Alt. Az. Time Alt. Az.
18 Apr ? 07:50:38 19° NE 07:50:38 19° NE 07:51:58 10° NE visible
18 Apr ? 09:27:50 18° NW 09:28:06 18° NW 09:31:15 10° N visible
19 Apr ? 08:08:35 25° NNE 08:08:35 25° NNE 08:10:45 10° NNE visible
19 Apr ? 09:45:48 10° NW 09:47:30 12° NNW 09:49:14 10° N visible
20 Apr ? 06:49:16 11° NE 06:49:16 11° NE 06:49:26 10° NE visible
20 Apr ? 08:26:28 24° NNW 08:26:28 24° NNW 08:29:19 10° NNE visible
21 Apr ? 07:07:07 19° NE 07:07:07 19° NE 07:08:26 10° NE visible
21 Apr ? 08:44:17 17° NW 08:44:37 17° NNW 08:47:39 10° N visible
22 Apr ? 07:24:52 26° N 07:24:52 26° N 07:27:11 10° NNE visible
22 Apr ? 09:02:33 10° NW 09:04:01 11° NNW 09:05:30 10° N visible
23 Apr ? 06:05:21 13° NE 06:05:21 13° NE 06:05:55 10° NE visible
23 Apr ? 07:42:33 24° NNW 07:42:33 24° NNW 07:45:41 10° NNE visible
24 Apr ? 06:22:56 24° NNE 06:22:56 24° NNE 06:24:51 10° NE visible
24 Apr ? 08:00:06 15° NW 08:01:04 16° NNW 08:03:58 10° N visible
25 Apr ? 06:40:22 34° N 06:40:22 34° N 06:43:31 10° NNE visible
25 Apr ? 08:19:18 10° NW 08:20:29 11° NNW 08:21:40 10° N visible
25 Apr ? 11:43:39 10° N 11:45:20 12° NNE 11:47:02 10° NE visible
26 Apr ? 05:20:27 23° NE 05:20:27 23° NE 05:22:19 10° NE visible
26 Apr ? 06:57:35 23° NW 06:58:14 24° NW 07:02:00 10° NNE visible
27 Apr ? 05:37:24 57° NNE 05:37:24 57° NNE 05:41:11 10° NNE visible
27 Apr ? 07:14:49 10° WNW 07:17:28 15° NNW 07:20:13 10° N visible
